Location: Bovenkerk
(52.2915°N, 4.8336°E)
Time: 00:41:12
(UTC+00:00)

N. Korean satellite - Pass Details

Date: 15 March 2021
Orbit: 453 x 499 km, 97.2° (Epoch: 11 April)

Event Time Altitude Azimuth Distance (km) Brightness Sun altitude
Rises 04:40:41 0° 20° (NNE) 2,564 10.7 -12.1°
Reaches altitude 10° 04:42:53 10° 30° (NNE) 1,686 9.9 -11.8°
Maximum altitude 04:46:13 34° 97° (E) 827 8.5 -11.3°
Drops below altitude 10° 04:49:35 10° 164° (SSE) 1,692 9.4 -10.8°
Sets 04:51:47 0° 173° (S) 2,574 10.2 -10.4°
